N4DCI Weather Reports


time (UTC)temp
C
wind
direction
speed
KPH
gust
KPH
rain 1hr
cm
rain 24hr
cm
rain mn
cm
humidity
%
barometer
mb
20260503231504 16 5 3.2 14.5 0.00 0.00 0.00 46 1017.7
20260503224505 17 219 3.2 17.7 0.00 0.00 0.00 45 1017.8
20260503223005 17 189 1.6 17.7 0.00 0.00 0.00 46 1017.8
20260503221505 17 229 4.8 9.7 0.00 0.00 0.00 44 1017.8
20260503220006 17 44 4.8 11.3 0.00 0.00 0.00 43 1017.8
20260503213004 17 196 3.2 4.8 0.00 0.00 0.00 43 1018.0
20260503211505 17 15 1.6 12.9 0.00 0.00 0.00 43 1018.2
20260503210005 17 26 6.4 16.1 0.00 0.00 0.00 44 1018.2
20260503204504 17 184 3.2 14.5 0.00 0.00 0.00 42 1018.2
20260503203005 18 58 3.2 16.1 0.00 0.00 0.00 43 1018.4
20260503201504 17 9 6.4 14.5 0.00 0.00 0.00 44 1018.6
20260503193004 18 48 1.6 11.3 0.00 0.00 0.00 46 1019.4
20260503191504 17 56 4.8 11.3 0.00 0.00 0.00 43 1019.5
20260503190004 17 110 6.4 16.1 0.00 0.00 0.00 43 1019.6
20260503184504 17 103 3.2 9.7 0.00 0.00 0.00 40 1019.7
20260503183006 17 54 4.8 9.7 0.00 0.00 0.00 41 1019.8
20260503181505 16 208 1.6 8.0 0.00 0.00 0.00 43 1020.1
20260503180006 16 175 3.2 9.7 0.00 0.00 0.00 42 1020.2
20260503173005 15 228 1.6 6.4 0.00 0.00 0.00 46 1020.6
20260503171504 15 223 3.2 6.4 0.00 0.00 0.00 46 1021.0
20260503071504 2 122 0.0 0.0 0.00 0.00 0.00 86 1018.6
20260503053005 3 123 0.0 0.0 0.00 0.00 0.00 82 1018.5
20260503051500 3 123 0.0 1.6 0.00 0.00 0.00 81 1018.5
20260503044505 4 123 0.0 0.0 0.00 0.00 0.00 78 1018.5
20260503043005 4 123 0.0 0.0 0.00 0.00 0.00 77 1018.4
20260503041505 5 123 0.0 0.0 0.00 0.00 0.00 75 1018.2
20260503040005 5 123 0.0 3.2 0.00 0.00 0.00 73 1017.9
20260503034504 6 123 0.0 0.0 0.00 0.00 0.00 71 1017.8
20260503033006 6 123 0.0 0.0 0.00 0.00 0.00 68 1017.7
20260503031505 6 123 0.0 0.0 0.00 0.00 0.00 66 1017.7
20260503030005 7 124 0.0 0.0 0.00 0.00 0.00 65 1017.6
20260503024504 8 124 0.0 0.0 0.00 0.00 0.00 62 1017.4
20260503023004 8 124 0.0 0.0 0.00 0.00 0.00 58 1017.4
20260503021505 9 69 0.0 0.0 0.00 0.00 0.00 55 1017.3
20260503020005 9 68 1.6 9.7 0.00 0.00 0.00 54 1017.0
20260503014505 9 103 0.0 4.8 0.00 0.00 0.00 54 1016.9
20260503013005 9 140 0.0 1.6 0.00 0.00 0.00 53 1016.7
20260503010005 10 87 1.6 6.4 0.00 0.00 0.00 51 1016.1
20260503004504 11 116 0.0 6.4 0.00 0.00 0.00 48 1015.8
20260503003005 11 360 1.6 8.0 0.00 0.00 0.00 46 1015.6
20260503001505 11 229 1.6 9.7 0.00 0.00 0.00 45 1015.4
20260502234505 12 81 4.8 16.1 0.00 0.00 0.00 44 1014.9
20260502233006 12 132 3.2 14.5 0.00 0.00 0.00 42 1014.7